Location: Hawks Ness
(60.2333°N, 1.1667°W)
Time: 15:15:08
(UTC+00:00)

Meteor 2-17 Rocket - Pass Details

Date: 22 October 2019
Orbit: 935 x 956 km, 82.5° (Epoch: 13 November)

Event Time Altitude Azimuth Distance (km) Brightness Sun altitude
Rises 05:24:14 0° 190° (S) 3,595 7.4 -12.6°
Reaches altitude 10° 05:26:42 10° 190° (S) 2,652 6.7 -12.3°
Maximum altitude 05:32:46 87° 104° (ESE) 947 4.5 -11.5°
Drops below altitude 10° 05:38:52 10° 15° (NNE) 2,661 6.9 -10.8°
Sets 05:41:22 0° 15° (NNE) 3,609 7.6 -10.5°
